EA1QW Weather Reports


Display with metric or nautical units.
time (UTC)temp
F
wind
direction
speed
MPH
gust
MPH
rain 1hr
in
rain 24hr
in
rain mn
in
humidity
%
barometer
mb
20180520140507 65 350 6.0 15.0 0.00 0.00 0.00 80 1015.2
20180520140010 65 56 7.0 16.0 0.00 0.00 0.00 78 1015.2
20180520135511 65 29 4.0 16.0 0.00 0.00 0.00 78 1015.4
20180520135012 65 338 7.0 16.0 0.00 0.00 0.00 78 1015.4
20180520134515 65 77 6.0 14.0 0.00 0.00 0.00 79 1015.4
20180520134012 64 5 5.0 17.0 0.00 0.00 0.00 80 1015.4
20180520133501 64 9 11.0 17.0 0.00 0.00 0.00 78 1015.4
20180520133015 64 46 11.0 16.0 0.00 0.00 0.00 76 1015.4
20180520132517 65 27 8.0 16.0 0.00 0.00 0.00 79 1015.6
20180520132015 64 17 8.0 17.0 0.00 0.00 0.00 77 1015.6
20180520131504 65 350 9.0 19.0 0.00 0.00 0.00 76 1015.6
20180520131002 65 28 9.0 20.0 0.00 0.00 0.00 76 1015.8
20180520130504 65 36 10.0 17.0 0.00 0.00 0.00 78 1015.8
20180520130001 66 38 7.0 15.0 0.00 0.00 0.00 79 1015.8
20180520125506 65 24 6.0 17.0 0.00 0.00 0.00 78 1015.9
20180520125000 64 343 9.0 17.0 0.00 0.00 0.00 78 1015.9
20180520124505 64 41 11.0 16.0 0.00 0.00 0.00 75 1015.9
20180520124003 64 28 9.0 16.0 0.00 0.00 0.00 76 1016.0
20180520123505 64 42 7.0 15.0 0.00 0.00 0.00 78 1016.0
20180520123003 64 336 8.0 15.0 0.00 0.00 0.00 79 1016.0
20180520122508 63 42 9.0 19.0 0.00 0.00 0.00 80 1016.2
20180520122006 64 44 10.0 19.0 0.00 0.00 0.00 80 1016.2
20180520121508 65 66 9.0 16.0 0.00 0.00 0.00 77 1016.2
20180520121006 65 43 7.0 14.0 0.00 0.00 0.00 80 1016.3
20180520120511 64 84 8.0 13.0 0.00 0.00 0.00 80 1016.3
20180520120005 65 46 7.0 12.0 0.00 0.00 0.00 77 1016.3
20180520115507 65 86 5.0 16.0 0.00 0.00 0.00 80 1016.4
20180520115008 65 39 8.0 16.0 0.00 0.00 0.00 80 1016.4
20180520114510 65 32 8.0 14.0 0.00 0.00 0.00 79 1016.4
20180520114008 65 5 5.0 17.0 0.00 0.00 0.00 81 1016.5
20180520113513 65 61 7.0 17.0 0.00 0.00 0.00 81 1016.5
20180520113011 65 22 6.0 15.0 0.00 0.00 0.00 80 1016.5
20180520112513 64 71 7.0 15.0 0.00 0.00 0.00 81 1016.9
20180520112011 65 75 7.0 14.0 0.00 0.00 0.00 80 1016.9
20180520111516 65 50 6.0 14.0 0.00 0.00 0.00 80 1016.9
20180520111014 65 348 6.0 13.0 0.00 0.00 0.00 79 1016.9
20180520110515 65 24 4.0 14.0 0.00 0.00 0.00 82 1016.9
20180520110019 64 40 7.0 14.0 0.00 0.00 0.00 80 1016.9
20180520105521 64 32 5.0 14.0 0.00 0.00 0.00 83 1016.9
20180520105001 64 28 6.0 12.0 0.00 0.00 0.00 80 1016.9
20180520104521 64 55 6.0 13.0 0.00 0.00 0.00 82 1016.9
20180520104019 63 69 6.0 15.0 0.00 0.00 0.00 83 1017.0
20180520103518 63 62 9.0 15.0 0.00 0.00 0.00 82 1017.0
20180520103016 63 33 5.0 15.0 0.00 0.00 0.00 83 1017.0
20180520102500 64 22 9.0 15.0 0.00 0.00 0.00 81 1017.2
20180520102019 64 66 6.0 13.0 0.00 0.00 0.00 81 1017.2
20180520101521 65 355 7.0 12.0 0.00 0.00 0.00 79 1017.2
20180520101018 64 36 5.0 12.0 0.00 0.00 0.00 81 1017.3
20180520100504 64 53 6.0 15.0 0.00 0.00 0.00 81 1017.3
20180520100018 64 31 10.0 15.0 0.00 0.00 0.00 78 1017.3
20180520095503 64 78 6.0 14.0 0.00 0.00 0.00 81 1017.4
20180520095020 64 32 6.0 14.0 0.00 0.00 0.00 82 1017.4
20180520094502 63 39 6.0 16.0 0.00 0.00 0.00 82 1017.4
20180520094006 63 34 10.0 16.0 0.00 0.00 0.00 80 1017.5
20180520093511 63 82 5.0 10.0 0.00 0.00 0.00 82 1017.5
20180520093008 63 54 6.0 12.0 0.00 0.00 0.00 83 1017.5
20180520092510 62 67 6.0 13.0 0.00 0.00 0.00 82 1017.5
20180520091006 62 27 7.0 14.0 0.00 0.00 0.00 81 1017.5
20180520090512 62 36 7.0 13.0 0.00 0.00 0.00 80 1017.5
20180520090011 62 61 7.0 12.0 0.00 0.00 0.00 81 1017.5
20180520085512 62 86 6.0 11.0 0.00 0.00 0.00 82 1017.5
20180520085013 62 36 6.0 12.0 0.00 0.00 0.00 82 1017.5
20180520084515 62 16 6.0 12.0 0.00 0.00 0.00 81 1017.5
20180520084014 62 42 6.0 11.0 0.00 0.00 0.00 81 1017.5
20180520083515 62 29 6.0 11.0 0.00 0.00 0.00 82 1017.5
20180520083016 62 51 6.0 10.0 0.00 0.00 0.00 82 1017.5
20180520082500 62 31 3.0 9.0 0.00 0.00 0.00 83 1017.8
20180520082004 62 32 5.0 8.0 0.00 0.00 0.00 83 1017.8
20180520081512 62 55 5.0 8.0 0.00 0.00 0.00 84 1017.8
20180520081016 62 17 3.0 9.0 0.00 0.00 0.00 84 1018.0
20180520080518 62 76 4.0 9.0 0.00 0.00 0.00 85 1018.0
20180520080018 61 41 4.0 7.0 0.00 0.00 0.00 86 1018.0
20180520075517 61 49 3.0 6.0 0.00 0.00 0.00 87 1018.0
20180520075012 61 103 3.0 5.0 0.00 0.00 0.00 88 1018.0
20180520074514 60 26 0.0 2.0 0.00 0.00 0.00 89 1018.0
20180520074012 59 26 0.0 2.0 0.00 0.00 0.00 89 1018.0
20180520073520 59 26 0.0 3.0 0.00 0.00 0.00 90 1018.0
20180520073018 59 26 1.0 3.0 0.00 0.00 0.00 90 1018.0
20180520072517 58 28 0.0 2.0 0.00 0.00 0.00 91 1018.1
20180520072014 58 28 0.0 1.0 0.00 0.00 0.00 93 1018.1
20180520071519 57 28 0.0 2.0 0.00 0.00 0.00 93 1018.1
20180520071014 57 28 0.0 2.0 0.00 0.00 0.00 93 1018.1
20180520070516 56 28 0.0 0.0 0.00 0.00 0.00 94 1018.1
20180520070013 56 28 0.0 1.0 0.00 0.00 0.00 94 1018.1
20180520065458 56 28 0.0 1.0 0.00 0.00 0.00 94 1018.1
20180520065002 55 32 0.0 0.0 0.00 0.00 0.00 95 1018.1
20180520064510 55 32 0.0 0.0 0.00 0.00 0.00 95 1018.1
20180520064014 55 32 0.0 0.0 0.00 0.00 0.00 95 1018.0
20180520063513 55 32 0.0 0.0 0.00 0.00 0.00 95 1018.0
20180520063011 54 32 0.0 0.0 0.00 0.00 0.00 95 1018.0
20180520062513 54 32 0.0 0.0 0.00 0.00 0.00 95 1018.0
20180520062017 54 32 0.0 0.0 0.00 0.00 0.00 95 1018.0
20180520061516 54 32 0.0 0.0 0.00 0.00 0.00 95 1018.0
20180520061011 53 32 0.0 0.0 0.00 0.00 0.00 95 1017.9
20180520060513 53 32 0.0 0.0 0.00 0.00 0.00 95 1017.9
20180520060010 53 32 0.0 0.0 0.00 0.00 0.00 95 1017.9
20180520055512 53 32 0.0 0.0 0.00 0.00 0.00 95 1017.9
20180520055013 53 32 0.0 0.0 0.00 0.00 0.00 95 1017.9
20180520054515 53 32 0.0 0.0 0.00 0.00 0.00 95 1017.9
20180520054013 53 32 0.0 0.0 0.00 0.00 0.00 95 1017.8
20180520053515 53 32 0.0 0.0 0.00 0.00 0.00 95 1017.8
20180520053016 53 32 0.0 0.0 0.00 0.00 0.00 94 1017.8
20180520052501 53 32 0.0 0.0 0.00 0.00 0.00 94 1017.8
20180520052005 53 32 0.0 0.0 0.00 0.00 0.00 94 1017.8
20180520051500 53 32 0.0 0.0 0.00 0.00 0.00 94 1017.8
20180520051004 53 32 0.0 0.0 0.00 0.00 0.00 94 1017.6
20180520050509 53 32 0.0 0.0 0.00 0.00 0.00 94 1017.6
20180520050002 53 32 0.0 0.0 0.00 0.00 0.00 95 1017.6
20180520045017 53 32 0.0 0.0 0.00 0.00 0.00 94 1017.6
20180520044459 53 32 0.0 0.0 0.00 0.00 0.00 94 1017.6
20180520044000 53 32 0.0 0.0 0.00 0.00 0.00 95 1017.7
20180520043505 53 32 0.0 0.0 0.00 0.00 0.00 95 1017.7
20180520043003 53 32 0.0 0.0 0.00 0.00 0.00 95 1017.7
20180520042502 53 32 0.0 0.0 0.00 0.00 0.00 94 1017.7
20180520042003 53 32 0.0 0.0 0.00 0.00 0.00 94 1017.7
20180520041508 53 32 0.0 0.0 0.00 0.00 0.00 94 1017.7
20180520041006 54 32 0.0 0.0 0.00 0.00 0.00 94 1017.7
20180520040504 54 32 0.0 0.0 0.00 0.00 0.00 94 1017.7
20180520035958 54 32 0.0 0.0 0.00 0.00 0.00 94 1017.7
20180520035459 54 32 0.0 0.0 0.00 0.00 0.00 94 1017.8
20180520035001 54 32 0.0 0.0 0.00 0.00 0.00 95 1017.8
20180520034502 54 32 0.0 0.0 0.00 0.00 0.00 95 1017.8
20180520034001 54 32 0.0 0.0 0.00 0.00 0.00 95 1017.9
20180520033502 54 32 0.0 0.0 0.00 0.00 0.00 95 1017.9
20180520033004 54 32 0.0 0.0 0.00 0.00 0.00 95 1017.9
20180520032504 54 32 0.0 0.0 0.00 0.00 0.00 95 1018.0
20180520032004 54 32 0.0 0.0 0.00 0.00 0.00 95 1018.0
20180520031505 54 32 0.0 0.0 0.00 0.00 0.00 95 1018.0
20180520031001 54 32 0.0 0.0 0.00 0.00 0.00 95 1018.0
20180520030502 54 32 0.0 0.0 0.00 0.00 0.00 95 1018.0
20180520030020 54 32 0.0 0.0 0.00 0.00 0.00 94 1018.0
20180520025501 54 32 0.0 0.0 0.00 0.00 0.00 94 1018.0
20180520025020 54 32 0.0 0.0 0.00 0.00 0.00 94 1018.0
20180520024501 54 32 0.0 0.0 0.00 0.00 0.00 94 1018.0
20180520024019 54 32 0.0 0.0 0.00 0.00 0.00 94 1018.0
20180520023520 54 32 0.0 0.0 0.00 0.00 0.00 94 1018.0
20180520023019 54 32 0.0 0.0 0.00 0.00 0.00 94 1018.0
20180520022520 54 32 0.0 0.0 0.00 0.00 0.00 94 1018.2
20180520022002 54 32 0.0 0.0 0.00 0.00 0.00 94 1018.2
20180520021506 53 32 0.0 0.0 0.00 0.00 0.00 94 1018.2
20180520021011 53 32 0.0 0.0 0.00 0.00 0.00 94 1018.5
20180520020508 53 32 0.0 0.0 0.00 0.00 0.00 94 1018.5
20180520020010 53 32 0.0 0.0 0.00 0.00 0.00 94 1018.5
20180520015513 54 32 0.0 0.0 0.00 0.00 0.00 94 1018.5
20180520015016 54 32 0.0 0.0 0.00 0.00 0.00 94 1018.5
20180520014517 53 32 0.0 0.0 0.00 0.00 0.00 94 1018.5
20180520014013 53 32 0.0 0.0 0.00 0.00 0.00 94 1018.6
20180520013515 53 32 0.0 0.0 0.00 0.00 0.00 94 1018.6
20180520013009 53 32 0.0 0.0 0.00 0.00 0.00 94 1018.6
20180520012507 54 32 0.0 0.0 0.00 0.00 0.00 93 1018.7
20180520012003 54 32 0.0 0.0 0.00 0.00 0.00 93 1018.7
20180520011501 54 32 0.0 0.0 0.00 0.00 0.00 93 1018.7
20180520011007 54 32 0.0 0.0 0.00 0.00 0.00 93 1018.8
20180520010504 54 32 0.0 0.0 0.00 0.00 0.00 93 1018.8
20180520010005 54 32 0.0 0.0 0.00 0.00 0.00 93 1018.8
20180520005503 54 32 0.0 0.0 0.00 0.00 0.00 93 1019.0
20180520005005 54 32 0.0 0.0 0.00 0.00 0.00 93 1019.0
20180520004503 54 32 0.0 0.0 0.00 0.00 0.00 93 1019.0
20180520004008 55 32 0.0 0.0 0.00 0.00 0.00 93 1019.1
20180520003506 55 32 0.0 0.0 0.00 0.00 0.00 93 1019.1
20180520003005 55 32 0.0 0.0 0.00 0.00 0.00 93 1019.1
20180520002503 55 32 0.0 0.0 0.00 0.00 0.00 93 1019.1
20180520002019 55 32 0.0 0.0 0.00 0.00 0.00 92 1019.1
20180520001457 55 32 0.0 0.0 0.00 0.00 0.00 92 1019.1
20180520001002 55 32 0.0 0.0 0.00 0.00 0.00 92 1019.1
20180520000500 55 32 0.0 0.0 0.00 0.00 0.00 92 1019.1
20180520000014 56 32 0.0 0.0 0.00 0.00 0.00 92 1019.1
20180519235512 56 32 0.0 0.0 0.00 0.00 0.00 92 1019.1
20180519235014 56 32 0.0 0.0 0.00 0.00 0.00 92 1019.1
20180519234518 56 32 0.0 0.0 0.00 0.00 0.00 93 1019.1
20180519234017 56 32 0.0 0.0 0.00 0.00 0.00 92 1019.3
20180519233515 56 32 0.0 0.0 0.00 0.00 0.00 92 1019.3
20180519233014 57 32 0.0 0.0 0.00 0.00 0.00 93 1019.3
20180519232515 57 32 0.0 0.0 0.00 0.00 0.00 93 1019.4
20180519232014 57 32 0.0 0.0 0.00 0.00 0.00 93 1019.4
20180519231513 57 32 0.0 0.0 0.00 0.00 0.00 93 1019.4
20180519231012 57 32 0.0 0.0 0.00 0.00 0.00 93 1019.5
20180519230510 57 32 0.0 2.0 0.00 0.00 0.00 93 1019.5
20180519225958 57 32 0.0 3.0 0.00 0.00 0.00 93 1019.5
20180519225519 57 32 2.0 3.0 0.00 0.00 0.00 93 1019.5
20180519225001 58 32 2.0 3.0 0.00 0.00 0.00 93 1019.5
20180519224505 58 32 0.0 0.0 0.00 0.00 0.00 93 1019.5
20180519224001 58 32 0.0 0.0 0.00 0.00 0.00 93 1019.5
20180519223459 58 32 0.0 3.0 0.00 0.00 0.00 93 1019.5
20180519223004 58 32 0.0 3.0 0.00 0.00 0.00 93 1019.5
20180519222502 58 32 2.0 3.0 0.00 0.00 0.00 93 1019.5
20180519222004 58 32 2.0 4.0 0.00 0.00 0.00 93 1019.5
20180519221502 58 32 2.0 4.0 0.00 0.00 0.00 93 1019.5
20180519221003 58 32 2.0 3.0 0.00 0.00 0.00 93 1019.6
20180519220501 58 32 1.0 4.0 0.00 0.00 0.00 93 1019.6
20180519215959 58 32 1.0 4.0 0.00 0.00 0.00 93 1019.6
20180519215500 58 32 2.0 4.0 0.00 0.00 0.00 93 1019.6
20180519215005 58 32 2.0 3.0 0.00 0.00 0.00 92 1019.6
20180519214517 58 32 0.0 4.0 0.00 0.00 0.00 92 1019.6
20180519213957 59 32 1.0 5.0 0.00 0.00 0.00 92 1019.6
20180519213518 59 32 2.0 5.0 0.00 0.00 0.00 92 1019.6
20180519213000 59 92 1.0 6.0 0.00 0.00 0.00 92 1019.6
20180519212505 59 92 2.0 6.0 0.00 0.00 0.00 92 1019.6
20180519212000 59 45 2.0 7.0 0.00 0.00 0.00 92 1019.6
20180519211458 59 67 2.0 7.0 0.00 0.00 0.00 92 1019.6
20180519211003 59 28 1.0 5.0 0.00 0.00 0.00 92 1019.4
20180519210501 59 28 3.0 5.0 0.00 0.00 0.00 92 1019.4
20180519210002 59 40 3.0 5.0 0.00 0.00 0.00 92 1019.4
20180519205506 59 38 3.0 5.0 0.00 0.00 0.00 92 1019.2
20180519205007 59 42 2.0 4.0 0.00 0.00 0.00 91 1019.2
20180519204508 59 42 3.0 5.0 0.00 0.00 0.00 91 1019.2
20180519204007 59 42 3.0 5.0 0.00 0.00 0.00 91 1019.1
20180519203508 59 42 2.0 4.0 0.00 0.00 0.00 91 1019.1
20180519203007 59 43 1.0 5.0 0.00 0.00 0.00 91 1019.1
20180519202507 59 43 2.0 6.0 0.00 0.00 0.00 91 1019.0
20180519202007 59 34 3.0 6.0 0.00 0.00 0.00 91 1019.0
20180519201503 60 29 3.0 6.0 0.00 0.00 0.00 91 1019.0
20180519201003 60 32 1.0 5.0 0.00 0.00 0.00 91 1019.0
20180519200503 60 51 1.0 7.0 0.00 0.00 0.00 91 1019.0
20180519200003 60 51 2.0 7.0 0.00 0.00 0.00 91 1019.0
20180519195502 60 61 4.0 9.0 0.00 0.00 0.00 91 1019.0
20180519195018 60 72 4.0 9.0 0.00 0.00 0.00 91 1019.0
20180519194519 60 31 3.0 8.0 0.00 0.00 0.00 91 1019.0
20180519193959 61 36 4.0 10.0 0.00 0.00 0.00 91 1019.0
20180519193509 61 43 7.0 10.0 0.00 0.00 0.00 90 1019.0
20180519193005 61 44 4.0 9.0 0.00 0.00 0.00 90 1019.0
20180519192510 61 51 6.0 9.0 0.00 0.00 0.00 89 1018.9
20180519192007 61 351 5.0 10.0 0.00 0.00 0.00 89 1018.9
20180519191506 61 12 4.0 10.0 0.00 0.00 0.00 88 1018.9
20180519191005 61 38 4.0 10.0 0.00 0.00 0.00 88 1018.7
20180519190506 61 76 4.0 10.0 0.00 0.00 0.00 88 1018.7
20180519190005 62 62 4.0 11.0 0.00 0.00 0.00 88 1018.7
20180519185503 62 22 4.0 11.0 0.00 0.00 0.00 87 1018.7
20180519185000 62 23 5.0 9.0 0.00 0.00 0.00 87 1018.7
20180519184501 62 350 4.0 9.0 0.00 0.00 0.00 87 1018.7
20180519184002 62 25 5.0 10.0 0.00 0.00 0.00 88 1018.8
20180519183506 62 67 5.0 10.0 0.00 0.00 0.00 88 1018.8
20180519183007 62 36 4.0 11.0 0.00 0.00 0.00 88 1018.8
20180519182504 62 32 6.0 11.0 0.00 0.00 0.00 88 1018.7
20180519181959 62 51 5.0 11.0 0.00 0.00 0.00 89 1018.7
20180519181502 62 37 6.0 12.0 0.00 0.00 0.00 89 1018.7
20180519181013 63 91 6.0 11.0 0.00 0.00 0.00 89 1018.7
20180519180509 63 26 5.0 8.0 0.00 0.00 0.00 89 1018.7
20180519180011 63 36 4.0 8.0 0.00 0.00 0.00 89 1018.7
20180519175511 63 24 3.0 11.0 0.00 0.00 0.00 89 1018.7
20180519175012 63 13 5.0 11.0 0.00 0.00 0.00 88 1018.7
20180519174513 63 29 3.0 12.0 0.00 0.00 0.00 89 1018.7
20180519174013 63 24 4.0 12.0 0.00 0.00 0.00 88 1018.7
20180519173457 63 37 6.0 11.0 0.00 0.00 0.00 88 1018.7
20180519173002 63 42 7.0 11.0 0.00 0.00 0.00 86 1018.7
20180519172503 63 36 7.0 11.0 0.00 0.00 0.00 84 1018.8
20180519172014 64 30 5.0 10.0 0.00 0.00 0.00 83 1018.8
20180519171514 64 15 6.0 11.0 0.00 0.00 0.00 83 1018.8
20180519171013 64 41 5.0 11.0 0.00 0.00 0.00 82 1018.9
20180519170500 64 32 6.0 11.0 0.00 0.00 0.00 84 1018.9
20180519170012 64 44 6.0 11.0 0.00 0.00 0.00 84 1018.9
20180519165512 64 35 5.0 13.0 0.00 0.00 0.00 85 1019.0
20180519165011 64 13 4.0 13.0 0.00 0.00 0.00 85 1019.0
20180519164512 64 57 3.0 13.0 0.00 0.00 0.00 88 1019.0
20180519164012 64 13 5.0 13.0 0.00 0.00 0.00 87 1019.0
20180519163511 63 95 5.0 12.0 0.00 0.00 0.00 87 1019.0
20180519163012 64 63 6.0 12.0 0.00 0.00 0.00 87 1019.0
20180519162511 64 92 5.0 12.0 0.00 0.00 0.00 86 1019.1
20180519162007 63 99 6.0 14.0 0.00 0.00 0.00 87 1019.1
20180519161504 63 84 8.0 14.0 0.00 0.00 0.00 87 1019.1
20180519161002 64 41 7.0 14.0 0.00 0.00 0.00 86 1019.0
20180519160509 64 32 8.0 14.0 0.00 0.00 0.00 85 1019.0
20180519160005 64 340 7.0 12.0 0.00 0.00 0.00 85 1019.0
20180519155507 64 49 5.0 10.0 0.00 0.00 0.00 86 1019.1
20180519155011 65 90 5.0 13.0 0.00 0.00 0.00 85 1019.1
20180519154505 64 92 6.0 13.0 0.00 0.00 0.00 86 1019.1
20180519154004 64 48 7.0 13.0 0.00 0.00 0.00 85 1019.1
20180519153514 64 21 7.0 13.0 0.00 0.00 0.00 83 1019.1
20180519153000 64 30 7.0 14.0 0.00 0.00 0.00 85 1019.1
20180519152511 64 28 8.0 14.0 0.00 0.00 0.00 85 1019.1
20180519152010 64 37 6.0 14.0 0.00 0.00 0.00 86 1019.1
20180519151515 64 43 9.0 13.0 0.00 0.00 0.00 84 1019.1
20180519151013 64 84 7.0 14.0 0.00 0.00 0.00 85 1019.2
20180519150500 64 17 6.0 14.0 0.00 0.00 0.00 86 1019.2
20180519150004 64 41 7.0 11.0 0.00 0.00 0.00 85 1019.2
20180519145501 65 46 4.0 13.0 0.00 0.00 0.00 84 1019.3
20180519145003 65 63 7.0 13.0 0.00 0.00 0.00 84 1019.3
20180519144507 65 78 6.0 11.0 0.00 0.00 0.00 83 1019.3
20180519144006 65 343 7.0 11.0 0.00 0.00 0.00 82 1019.5
20180519143506 65 17 5.0 10.0 0.00 0.00 0.00 84 1019.5
20180519143004 64 28 7.0 10.0 0.00 0.00 0.00 83 1019.5
20180519142504 65 22 6.0 10.0 0.00 0.00 0.00 82 1019.6
20180519142005 65 13 5.0 12.0 0.00 0.00 0.00 81 1019.6
20180519141509 65 28 5.0 12.0 0.00 0.00 0.00 82 1019.6
20180519141009 65 348 5.0 12.0 0.00 0.00 0.00 80 1019.7